• In Latvia
  • List of Countries
  • For 7 days
  • Water Temperature
  • Satellite Maps
  • Weather Map
  • Weather Widgets
  • user-avatar
    Login

    Hourly Weather Kramatorsk

    Today, 23 October, Tuesday

    Time Temperature Precipitation Wind Pressure Humidity
    00:00 +13°C° 0 mm 2 mps 755 mmHg 85%
    01:00 +12°C° 0 mm 2 mps 755 mmHg 86%
    02:00 +11°C° 0 mm 3 mps 754 mmHg 87%
    03:00 +10°C° 0 mm 3 mps 754 mmHg 87%
    04:00 +10°C° 0 mm 3 mps 754 mmHg 88%
    05:00 +9°C° 0 mm 3 mps 754 mmHg 89%
    06:00 +8°C° 0 mm 3 mps 753 mmHg 90%
    07:00 +9°C° 0 mm 3 mps 753 mmHg 86%
    08:00 +9°C° 0 mm 3 mps 753 mmHg 83%
    09:00 +9°C° 0 mm 3 mps 753 mmHg 79%
    10:00 +10°C° 0 mm 4 mps 753 mmHg 71%
    11:00 +12°C° 0 mm 4 mps 753 mmHg 62%
    12:00 +13°C° 0 mm 5 mps 753 mmHg 54%
    13:00 +13°C° 0 mm 5 mps 753 mmHg 50%
    14:00 +13°C° 0 mm 5 mps 752 mmHg 45%
    15:00 +14°C° 0 mm 5 mps 752 mmHg 41%
    16:00 +13°C° 0 mm 4 mps 751 mmHg 44%
    17:00 +12°C° 0 mm 4 mps 751 mmHg 48%
    18:00 +11°C° 0 mm 3 mps 750 mmHg 51%
    19:00 +10°C° 0 mm 3 mps 750 mmHg 54%
    20:00 +10°C° 0 mm 3 mps 750 mmHg 56%
    21:00 +10°C° 0 mm 4 mps 749 mmHg 58%
    22:00 +8°C° 0 mm 4 mps 749 mmHg 58%
    23:00 +8°C° 0 mm 4 mps 748 mmHg 58%

    Tomorrow, 24 October, Wednesday

    Time Temperature Precipitation Wind Pressure Humidity
    00:00 +8°C° 0 mm 5 mps 748 mmHg 58%
    01:00 +8°C° 0 mm 5 mps 747 mmHg 58%
    02:00 +8°C° 0 mm 5 mps 747 mmHg 58%
    03:00 +8°C° 0 mm 5 mps 746 mmHg 58%
    04:00 +9°C° 0.1 mm 6 mps 745 mmHg 61%
    05:00 +9°C° 0.1 mm 7 mps 744 mmHg 63%
    06:00 +9°C° 0.1 mm 8 mps 743 mmHg 66%
    07:00 +9°C° 0.4 mm 8 mps 742 mmHg 69%
    08:00 +10°C° 0.4 mm 8 mps 742 mmHg 73%
    09:00 +10°C° 0.4 mm 9 mps 741 mmHg 76%
    10:00 +11°C° 0.5 mm 9 mps 740 mmHg 74%
    11:00 +11°C° 0.5 mm 9 mps 740 mmHg 72%
    12:00 +12°C° 0.5 mm 9 mps 739 mmHg 69%
    13:00 +11°C° 0.4 mm 9 mps 738 mmHg 69%
    14:00 +11°C° 0.4 mm 8 mps 738 mmHg 69%
    15:00 +11°C° 0.4 mm 8 mps 737 mmHg 69%
    16:00 +11°C° 0.3 mm 8 mps 736 mmHg 73%
    17:00 +11°C° 0.3 mm 7 mps 736 mmHg 76%
    18:00 +11°C° 0.3 mm 6 mps 735 mmHg 79%
    19:00 +10°C° 0.7 mm 7 mps 734 mmHg 80%
    20:00 +10°C° 0.7 mm 7 mps 734 mmHg 81%
    21:00 +10°C° 0.7 mm 7 mps 733 mmHg 82%
    22:00 +10°C° 0.4 mm 7 mps 733 mmHg 81%
    23:00 +10°C° 0.4 mm 7 mps 733 mmHg 81%

    Day after tomorrow, 25 October, Thursday

    Time Temperature Precipitation Wind Pressure Humidity
    00:00 +10°C° 0.4 mm 7 mps 732 mmHg 80%
    01:00 +9°C° 0 mm 7 mps 733 mmHg 77%
    02:00 +8°C° 0 mm 7 mps 733 mmHg 74%
    03:00 +6°C° 0 mm 7 mps 734 mmHg 71%
    04:00 +5°C° 0 mm 7 mps 734 mmHg 72%
    05:00 +5°C° 0 mm 7 mps 735 mmHg 73%
    06:00 +4°C° 0 mm 7 mps 735 mmHg 74%
    07:00 +4°C° 0 mm 7 mps 736 mmHg 72%
    08:00 +5°C° 0 mm 8 mps 736 mmHg 70%
    09:00 +5°C° 0 mm 8 mps 737 mmHg 68%
    10:00 +6°C° 0 mm 8 mps 737 mmHg 64%
    11:00 +6°C° 0 mm 8 mps 738 mmHg 59%
    12:00 +7°C° 0 mm 8 mps 738 mmHg 54%
    13:00 +8°C° 0 mm 7 mps 738 mmHg 55%
    14:00 +8°C° 0 mm 7 mps 739 mmHg 55%
    15:00 +8°C° 0 mm 7 mps 739 mmHg 56%
    16:00 +7°C° 0 mm 6 mps 739 mmHg 59%
    17:00 +7°C° 0 mm 5 mps 740 mmHg 62%
    18:00 +6°C° 0 mm 4 mps 740 mmHg 65%
    19:00 +6°C° 0 mm 4 mps 741 mmHg 67%
    20:00 +5°C° 0 mm 4 mps 741 mmHg 69%
    21:00 +5°C° 0 mm 4 mps 742 mmHg 72%
    22:00 +5°C° 0 mm 4 mps 742 mmHg 74%
    23:00 +4°C° 0 mm 4 mps 742 mmHg 76%

    26 October, Friday

    Time Temperature Precipitation Wind Pressure Humidity
    00:00 +4°C° 0 mm 4 mps 742 mmHg 78%
    01:00 +4°C° 0 mm 4 mps 743 mmHg 79%
    02:00 +3°C° 0 mm 4 mps 743 mmHg 80%
    03:00 +3°C° 0 mm 4 mps 743 mmHg 81%
    04:00 +3°C° 0 mm 4 mps 744 mmHg 81%
    05:00 +2°C° 0 mm 3 mps 744 mmHg 82%
    06:00 +2°C° 0 mm 3 mps 745 mmHg 82%
    07:00 +3°C° 0 mm 3 mps 745 mmHg 78%
    08:00 +4°C° 0 mm 2 mps 746 mmHg 75%
    09:00 +5°C° 0 mm 2 mps 746 mmHg 71%
    10:00 +6°C° 0 mm 2 mps 747 mmHg 64%
    11:00 +7°C° 0 mm 2 mps 747 mmHg 58%
    12:00 +8°C° 0 mm 2 mps 747 mmHg 51%
    13:00 +8°C° 0 mm 3 mps 748 mmHg 49%
    14:00 +9°C° 0 mm 3 mps 748 mmHg 47%
    15:00 +9°C° 0 mm 3 mps 748 mmHg 45%
    16:00 +9°C° 0 mm 3 mps 749 mmHg 48%
    17:00 +8°C° 0 mm 3 mps 750 mmHg 51%
    18:00 +7°C° 0 mm 2 mps 750 mmHg 53%
    19:00 +7°C° 0 mm 2 mps 751 mmHg 56%
    20:00 +6°C° 0 mm 2 mps 752 mmHg 59%
    21:00 +5°C° 0 mm 2 mps 752 mmHg 61%
    22:00 +4°C° 0 mm 3 mps 753 mmHg 63%
    23:00 +4°C° 0 mm 3 mps 754 mmHg 66%

    27 October, Saturday

    Time Temperature Precipitation Wind Pressure Humidity
    00:00 +3°C° 0 mm 3 mps 754 mmHg 68%
    01:00 +3°C° 0 mm 3 mps 755 mmHg 69%
    02:00 +3°C° 0 mm 3 mps 755 mmHg 70%
    03:00 +3°C° 0 mm 4 mps 755 mmHg 71%
    04:00 +3°C° 0 mm 4 mps 756 mmHg 72%
    05:00 +3°C° 0 mm 4 mps 756 mmHg 74%
    06:00 +3°C° 0 mm 4 mps 757 mmHg 75%
    07:00 +4°C° 0 mm 4 mps 757 mmHg 73%
    08:00 +5°C° 0 mm 5 mps 758 mmHg 70%
    09:00 +5°C° 0 mm 5 mps 758 mmHg 68%
    10:00 +7°C° 0 mm 5 mps 758 mmHg 62%
    11:00 +9°C° 0 mm 5 mps 758 mmHg 56%
    12:00 +10°C° 0 mm 6 mps 758 mmHg 50%
    13:00 +11°C° 0 mm 6 mps 758 mmHg 49%
    14:00 +11°C° 0 mm 6 mps 758 mmHg 47%
    15:00 +13°C° 0 mm 6 mps 757 mmHg 46%
    16:00 +11°C° 0 mm 6 mps 757 mmHg 49%
    17:00 +11°C° 0 mm 6 mps 757 mmHg 53%
    18:00 +11°C° 0 mm 6 mps 757 mmHg 56%
    19:00 +10°C° 0 mm 6 mps 757 mmHg 57%
    20:00 +10°C° 0 mm 7 mps 757 mmHg 58%
    21:00 +10°C° 0 mm 7 mps 757 mmHg 59%
    22:00 +10°C° 0 mm 7 mps 757 mmHg 63%
    23:00 +10°C° 0 mm 7 mps 757 mmHg 66%

    28 October, Sunday

    Time Temperature Precipitation Wind Pressure Humidity
    00:00 +10°C° 0 mm 7 mps 757 mmHg 70%
    01:00 +10°C° 0 mm 6 mps 757 mmHg 73%
    02:00 +10°C° 0 mm 6 mps 757 mmHg 76%
    03:00 +10°C° 0 mm 6 mps 757 mmHg 79%
    04:00 +10°C° 0 mm 6 mps 757 mmHg 82%
    05:00 +10°C° 0 mm 6 mps 757 mmHg 84%
    06:00 +10°C° 0 mm 7 mps 757 mmHg 87%
    07:00 +11°C° 0 mm 7 mps 757 mmHg 85%
    08:00 +12°C° 0 mm 8 mps 757 mmHg 82%
    09:00 +12°C° 0 mm 8 mps 757 mmHg 80%
    10:00 +15°C° 0 mm 9 mps 757 mmHg 72%
    11:00 +16°C° 0 mm 9 mps 757 mmHg 65%
    12:00 +18°C° 0 mm 9 mps 756 mmHg 57%
    13:00 +18°C° 0 mm 9 mps 756 mmHg 55%
    14:00 +19°C° 0 mm 9 mps 756 mmHg 53%
    15:00 +19°C° 0 mm 9 mps 755 mmHg 51%
    16:00 +18°C° 0 mm 9 mps 755 mmHg 56%
    17:00 +18°C° 0 mm 8 mps 755 mmHg 60%
    18:00 +17°C° 0 mm 7 mps 755 mmHg 64%
    19:00 +16°C° 0 mm 8 mps 755 mmHg 66%
    20:00 +16°C° 0 mm 8 mps 755 mmHg 68%
    21:00 +16°C° 0 mm 8 mps 755 mmHg 69%
    22:00 +15°C° 0 mm 7 mps 755 mmHg 70%
    23:00 +15°C° 0 mm 7 mps 756 mmHg 71%

    29 October, Monday

    Time Temperature Precipitation Wind Pressure Humidity
    00:00 +15°C° 0 mm 7 mps 756 mmHg 73%
    01:00 +14°C° 0 mm 6 mps 756 mmHg 73%
    02:00 +14°C° 0 mm 6 mps 756 mmHg 74%
    03:00 +14°C° 0 mm 6 mps 756 mmHg 74%
    04:00 +14°C° 0 mm 6 mps 756 mmHg 75%
    05:00 +13°C° 0 mm 5 mps 756 mmHg 76%
    06:00 +13°C° 0 mm 5 mps 756 mmHg 77%
    07:00 +14°C° 0 mm 5 mps 757 mmHg 75%
    08:00 +14°C° 0 mm 5 mps 757 mmHg 73%
    09:00 +15°C° 0 mm 5 mps 757 mmHg 71%
    10:00 +16°C° 0 mm 5 mps 757 mmHg 65%
    11:00 +19°C° 0 mm 5 mps 757 mmHg 59%
    12:00 +20°C° 0 mm 5 mps 758 mmHg 53%
    13:00 +21°C° 0 mm 5 mps 757 mmHg 51%
    14:00 +21°C° 0 mm 5 mps 757 mmHg 48%
    15:00 +22°C° 0 mm 5 mps 757 mmHg 46%
    16:00 +20°C° 0 mm 4 mps 757 mmHg 51%
    17:00 +19°C° 0 mm 4 mps 757 mmHg 56%
    18:00 +17°C° 0 mm 3 mps 758 mmHg 61%
    19:00 +17°C° 0 mm 3 mps 758 mmHg 64%
    20:00 +16°C° 0 mm 3 mps 758 mmHg 67%
    21:00 +14°C° 0 mm 3 mps 758 mmHg 69%
    22:00 +14°C° 0 mm 3 mps 758 mmHg 67%
    23:00 +13°C° 0 mm 3 mps 758 mmHg 64%
    Show more